Location: Caltech
(34.1382°N, 118.1253°W)
Time: 03:50:37
(UTC-07:00)

BREEZE M DEB (TANK) - Visible Passes

Search period start: 31 August 2015 00:00
Search period end: 10 September 2015 00:00
Orbit: 313 x 13780 km, 49.6° (Epoch: 29 August)

Date Brightness Start Highest point End Pass type
(mag) Time Alt. Az. Time Alt. Az. Time Alt. Az.
31 Aug 9.1 19:55:51 10° NW 21:35:00 35° WSW 22:25:00 10° SSW visible
01 Sep 8.9 17:05:00 10° NW 18:34:38 76° SW 19:58:39 10° SSE visible
02 Sep 9.1 19:07:26 10° NW 20:46:47 43° WSW 21:45:08 10° SSW visible
03 Sep 9.8 21:26:00 10° WNW 22:47:38 13° W 22:59:43 10° WSW visible
04 Sep 9.0 18:19:59 10° NW 19:57:21 52° WSW 21:03:51 10° S visible
05 Sep 9.6 20:30:20 10° NW 22:00:52 20° W 22:33:03 10° WSW visible
06 Sep 9.1 17:33:17 10° NW 19:06:32 61° WSW 20:21:30 10° S visible
07 Sep 9.4 19:39:00 10° NW 21:13:19 28° WSW 21:59:00 10° SW visible
08 Sep 9.1 16:47:05 10° NW 18:14:12 69° SW 19:38:18 10° S visible
09 Sep 9.3 18:49:49 10° NW 20:24:52 36° WSW 21:21:07 10° SSW visible
